2023/09/06 00:00:00, 0.1,23.9
2023/09/06 00:10:00, 0.1,24.0
2023/09/06 00:20:00, 0.2,23.7
2023/09/06 00:30:00, 5.1,23.7
2023/09/06 00:40:00, 6.9,24.0
2023/09/06 00:50:00, 0.1,23.6
2023/09/06 01:00:00, 0.1,23.7
2023/09/06 01:10:00, 0.1,23.7
2023/09/06 01:20:00, 0.1,24.0
2023/09/06 01:30:00, 0.1,23.7
2023/09/06 01:40:00, 0.1,23.6
2023/09/06 01:50:00,10.4,23.6
2023/09/06 02:00:00, 9.4,23.6
2023/09/06 02:10:00, 0.2,23.5
2023/09/06 02:20:00, 0.1,23.4
2023/09/06 02:30:00, 0.1,23.4
2023/09/06 02:40:00, 0.1,23.4
2023/09/06 02:50:00, 0.1,23.4
2023/09/06 03:00:00, 0.1,23.4
2023/09/06 03:10:00, 0.1,23.4
2023/09/06 03:20:00, 2.4,23.1
2023/09/06 03:30:00,10.4,23.2
2023/09/06 03:40:00,11.0,23.1
2023/09/06 03:50:00,11.4,23.0
2023/09/06 04:00:00,11.8,22.9
2023/09/06 04:10:00,12.2,22.9
2023/09/06 04:20:00,12.3,23.0
2023/09/06 04:30:00,12.2,22.9
2023/09/06 04:40:00,11.7,22.8
2023/09/06 04:50:00,10.8,22.6
2023/09/06 05:00:00,10.2,23.0
2023/09/06 05:10:00, 9.8,22.7
2023/09/06 05:20:00, 9.4,22.8
2023/09/06 05:30:00, 9.0,22.7
2023/09/06 05:40:00, 8.9,22.9
2023/09/06 05:50:00, 8.7,22.6
2023/09/06 06:00:00, 8.4,22.7
2023/09/06 06:10:00, 8.2,22.5
2023/09/06 06:20:00, 8.2,22.8
2023/09/06 06:30:00, 8.2,23.1
2023/09/06 06:40:00, 8.0,23.2
2023/09/06 06:50:00, 7.9,23.3
2023/09/06 07:00:00, 8.0,23.2
2023/09/06 07:10:00, 7.5,23.7
2023/09/06 07:20:00, 7.2,23.7
2023/09/06 07:30:00, 7.4,24.0
2023/09/06 07:40:00, 7.5,24.1
2023/09/06 07:50:00, 7.2,24.8
2023/09/06 08:00:00, 6.5,24.3
2023/09/06 08:10:00, 5.2,24.7
2023/09/06 08:20:00, 4.9,25.1
2023/09/06 08:30:00, 5.0,25.5
2023/09/06 08:40:00, 0.0,26.9
2023/09/06 08:50:00, 7.1,26.7
2023/09/06 09:00:00, 7.0,25.5
2023/09/06 09:10:00, 6.4,25.1
2023/09/06 09:20:00, 5.7,25.2
2023/09/06 09:30:00, 5.3,25.8
2023/09/06 09:40:00, 4.9,25.8
2023/09/06 09:50:00, 5.2,26.2
2023/09/06 10:00:00, 5.9,25.9
2023/09/06 10:10:00, 5.8,25.8
2023/09/06 10:20:00, 5.9,25.1
2023/09/06 10:30:00, 6.0,25.5
2023/09/06 10:40:00, 5.4,26.2
2023/09/06 10:50:00, 5.9,27.0
2023/09/06 11:00:00, 4.8,27.0
2023/09/06 11:10:00, 3.6,26.2
2023/09/06 11:20:00, 4.0,26.0
2023/09/06 11:30:00, 1.3,25.0
2023/09/06 11:40:00, 0.0,24.5
2023/09/06 11:50:00, 0.0,23.9
2023/09/06 12:00:00, 0.0,23.2
2023/09/06 12:10:00, 0.0,23.0
2023/09/06 12:20:00, 0.0,22.7
2023/09/06 12:30:00, 0.0,22.8
2023/09/06 12:40:00, 0.0,23.2
2023/09/06 12:50:00, 0.0,23.9
2023/09/06 13:00:00, 0.0,24.0
2023/09/06 13:10:00, 0.0,25.0
2023/09/06 13:20:00, 0.0,24.9
2023/09/06 13:30:00, 0.0,24.8
2023/09/06 13:40:00, 0.0,25.0
2023/09/06 13:50:00, 0.1,24.3
2023/09/06 14:00:00, 0.1,25.3
2023/09/06 14:10:00, 0.8,25.7
2023/09/06 14:20:00, 1.9,25.8
2023/09/06 14:30:00, 2.2,26.3
2023/09/06 14:40:00, 0.0,26.3
2023/09/06 14:50:00, 0.0,27.3
2023/09/06 15:00:00, 0.0,27.2
2023/09/06 15:10:00, 3.1,27.0
2023/09/06 15:20:00, 0.0,26.1
2023/09/06 15:30:00, 0.1,25.6
2023/09/06 15:40:00, 0.5,25.5
2023/09/06 15:50:00, 0.1,26.5
2023/09/06 16:00:00, 0.0,26.1
2023/09/06 16:10:00, 0.0,26.1
2023/09/06 16:20:00, 0.0,25.5
2023/09/06 16:30:00, 0.0,25.4
2023/09/06 16:40:00, 0.0,25.1
2023/09/06 16:50:00, 0.2,25.3
2023/09/06 17:00:00, 3.0,25.7
2023/09/06 17:10:00, 4.9,27.7
2023/09/06 17:20:00, 5.5,27.6
2023/09/06 17:30:00, 5.9,25.1
2023/09/06 17:40:00, 6.2,24.0
2023/09/06 17:50:00, 6.2,23.7
2023/09/06 18:00:00, 2.8,23.3
2023/09/06 18:10:00, 0.4,22.8
2023/09/06 18:20:00, 0.3,22.7
2023/09/06 18:30:00, 0.2,22.6
2023/09/06 18:40:00, 0.2,21.8
2023/09/06 18:50:00, 0.2,21.8
2023/09/06 19:00:00, 0.2,21.5
2023/09/06 19:10:00, 0.2,21.1
2023/09/06 19:20:00, 0.2,21.2
2023/09/06 19:30:00, 0.2,20.8
2023/09/06 19:40:00, 0.1,20.6
2023/09/06 19:50:00, 0.2,20.5
2023/09/06 20:00:00, 0.1,20.3
2023/09/06 20:10:00, 0.1,20.4
2023/09/06 20:20:00, 0.1,20.1
2023/09/06 20:30:00, 0.1,20.1
2023/09/06 20:40:00, 0.2,20.2
2023/09/06 20:50:00, 0.2,20.0
2023/09/06 21:00:00, 0.2,20.1
2023/09/06 21:10:00, 0.2,20.2
2023/09/06 21:20:00, 0.2,20.3
2023/09/06 21:30:00, 0.2,20.0
2023/09/06 21:40:00, 0.2,19.9
2023/09/06 21:50:00, 0.2,19.9
2023/09/06 22:00:00, 0.1,19.8
2023/09/06 22:10:00, 0.1,20.0
2023/09/06 22:20:00, 0.1,20.2
2023/09/06 22:30:00, 0.1,20.3
2023/09/06 22:40:00, 0.1,20.4
2023/09/06 22:50:00, 0.1,20.2
2023/09/06 23:00:00, 0.2,20.4
2023/09/06 23:10:00, 0.2,20.2
2023/09/06 23:20:00, 0.2,20.3
2023/09/06 23:30:00, 0.1,20.4
2023/09/06 23:40:00, 0.1,20.4
2023/09/06 23:50:00, 0.0,20.4
